This is the latest recevied weather packets stored in our database for station/object VK5KX. If no packets are shown the sender has not sent any weather packets the latest 10 day(s).
| Time | Temp. | Humidity | Pressure | Rain* | Wind** | Luminosity | Snow |
|---|---|---|---|---|---|---|---|
| 1777835750 | 15° C | 87% | 1011.7 hPa | 0.51 mm | - | - | - |
| 1777834859 | 15° C | 87% | 1011.6 hPa | 0 mm | - | - | - |
| 1777833943 | 15° C | 88% | 1011.5 hPa | 0 mm | - | - | - |
| 1777833055 | 14.44° C | 89% | 1011.5 hPa | 0 mm | - | - | - |
| 1777832140 | 14.44° C | 90% | 1011.5 hPa | 0 mm | - | - | - |
| 1777831250 | 13.89° C | 91% | 1011.5 hPa | 0 mm | - | - | - |
| 1777830336 | 13.89° C | 91% | 1011.7 hPa | 0.51 mm | - | - | - |
| 1777829439 | 13.89° C | 92% | 1011.8 hPa | 1.52 mm | - | - | - |
| 1777828540 | 13.89° C | 92% | 1011.8 hPa | 1.78 mm | - | - | - |
| 1777827634 | 13.89° C | 92% | 1012 hPa | 1.78 mm | - | - | - |
| 1777826731 | 13.89° C | 91% | 1012.2 hPa | 1.02 mm | - | - | - |
| 1777825828 | 13.33° C | 91% | 1011.9 hPa | 0.25 mm | - | - | - |
| 1777824928 | 13.33° C | 91% | 1012 hPa | 0.25 mm | - | - | - |
| 1777824027 | 13.33° C | 90% | 1012 hPa | 0.51 mm | - | - | - |
| 1777823126 | 13.89° C | 90% | 1012.1 hPa | 0.51 mm | - | - | - |
| 1777822224 | 13.89° C | 90% | 1012.2 hPa | 0.51 mm | - | - | - |
| 1777821325 | 13.89° C | 89% | 1012 hPa | 0.25 mm | - | - | - |
| 1777820421 | 13.89° C | 89% | 1012.2 hPa | 0 mm | - | - | - |
| 1777819519 | 13.89° C | 88% | 1012.4 hPa | 0 mm | - | - | - |
| 1777818620 | 13.33° C | 89% | 1012.6 hPa | 0 mm | - | - | - |
| 1777817715 | 13.33° C | 89% | 1012.6 hPa | 0 mm | - | - | - |
| 1777816814 | 13.33° C | 89% | 1012.7 hPa | 0 mm | - | - | - |
| 1777815914 | 13.89° C | 88% | 1012.8 hPa | 0 mm | - | - | - |
| 1777815013 | 13.89° C | 88% | 1012.9 hPa | 0 mm | - | - | - |
| 1777814113 | 13.89° C | 89% | 1013 hPa | 0 mm | - | - | - |
* Rain latest hour (hover to see other rain measurements)
** Current wind speed in m/s (hover to see current wind gust speed)